Voltar ao catálogo

STARLINK-35000

AtivoComunicaçõesSSO
NORAD 65278·PAYLOAD·🇺🇸 United States

Lançado Aug 22, 2025 de Vandenberg Space Force Base

Loading…

Próximas Passagens (próximas 24 horas)

TLE

AtualizadoSource: CelesTrak SupGP

Época: Sep 14, 2026, 21:32 UTC

1 65278C 25184F   26257.89770833  .00001819  00000+0  56484-4 0  2571
2 65278  97.2831 305.9672 0000960  96.3132  38.7891 15.33431577    17

Acompanhe STARLINK-35000 em tempo real com AllMySat

Download on the App Store